Poker online

Jackpot

Texas Poker Multi Jackpot System

Kini Telah hadir Jackpot SUPER ROYAL FLUSH

Kini Telah hadir Jackpot 2000 (khusus table VIP keatas).

Ikutilah global jackpot yang tersedia di system kami, dengan system jackpot terbaru dan pertama di indonesia, anda dapat membeli jackpot dengan harga 100 rupiah saja dan menangkan hadiahnya hingga puluhan juta rupiah.

Jackpot bukanlah suatu keharusan untuk dibeli, namun kami memberikan suatu fitur tambahan untuk member tercinta dari www.168wbpoker.asia.

Terdapat tiga pilihan harga jackpot yang bisa anda beli yaitu :100,500,1000 dan 2000(khusus table VIP Keatas) rupiah.

Hadiah dari Multi jackpot system www.168wbpoker.asia

  1. full house x 10 harga jackpot yang anda beli.
      (contoh:anda membeli 1000 maka:1000 X10 = 10.000)
  2. four of kind x 250 harga jackpot yang anda beli
      (contoh:anda membeli 1000 maka:1000 X250 = 250.000)
  3. Straight flush x 1200
      (contoh:anda membeli 1000 maka:1000 X1200 = 1.200.000)
  4. Royal flush x 10000 harga jackpot yang anda beli
      (contoh:anda membeli 1000 maka:1000 X10000 = 10.000.000)
  5. SUPER ROYAL FLUSH x 30000 harga jackpot yang anda beli
      (contoh:anda membeli 1000 maka:1000 X30000 = 30.000.000)

Kondisi kartu

  1. full house adalah kondisi kartu dimana kartu anda dan kartu tengah dengan total 7 kartu bisa mendapatkan nilai 5 kartu dengan kombinasi 1 tris(three of kind) dan 1 pair, contoh 3 kartu 10 dan 2 kartu 5
  2. Four of kind adalah kondisi kartu dimana kartu anda dan kartu tengah dengan total 7 kartu bisa mendapatkan nilai 5 kartu dengan kombinasi 4 kartu yang sama jumlah dan 1 kartu apapun juga contoh anda mendapatkan 4 buah kartu angka 3 dan 1 kartu apapun.
  3. Staright flush adalah kondisi kartu dimana kartu anda dan kartu tengah dengan total 7 kartu bisa mendapatkan nilai 5 kartu dengan kombinasi seri / staright dengan kembang yang sama contoh : urutan kartu dari angka 5, 6, 7, 8 , 9 10 dengan kembang yg sama misalnya as hati
  4. Royal flush adalah kondisi kartu dimana kartu anda dan kartu tengah dengan total 7 kartu bisa mendapatkan nilai 5 kartu dengan kombinasi seri / staright dengan kembang yang sama tetapi kartu tersebut haruslah dimulai dari 10. contoh 10, Queen, Jack, King dan aces dengan kembang yang sama
  5. Super Royal flush adalah kondisi kartu dimana Kedua kartu anda digabung dengan 3 kartu pertama meja haruslah royal flush. contoh kartu anda 10,Queen kembang sama dan 3 kartu pertama meja adalah Jack, King dan aces dengan kembang yang sama

Demikian adalah penjelasan dari Multi Jackpot www.168wbpoker.asia terima kasih dan selamat bermain salam hoki dari kami

Texas Poker Jackpot Winner

TOP SUPER ROYAL FLUSH
No.TanggalNamaPriceWin
128/05 01:19KOKOBEJO11Super Royal flush30,000,000
227/05 23:11SINCE2008Super Royal flush15,000,000
327/05 22:21CHUNI7Super Royal flush30,000,000
427/05 17:39MCA345Super Royal flush1,500,000
527/05 17:15MAKMUR1968Super Royal flush6,000,000
TOP ROYAL FLUSH
No.TanggalNamaPriceWin
128/05 02:09FRZZRoyal flush10,000,000
228/05 02:09TANTIO27Royal flush5,000,000
328/05 01:57PAIN98Royal flush1,000,000
428/05 01:56DWBTR0461Royal flush1,000,000
528/05 01:53COPY21Royal flush1,000,000
TOP STRAIGHT FLUSH
No.TanggalNamaPriceWin
128/05 02:13APALAHEStraight Flush600,000
228/05 02:11AKEP13Straight Flush60,000
328/05 02:10FEARDYYYYYStraight Flush240,000
428/05 02:10RENGAS666Straight Flush240,000
528/05 02:09BANDITTZZZStraight Flush240,000
LATEST JACKPOT
No.TanggalNamaPriceWin
128/05 02:14BOLOT1969Full House2,000
228/05 02:14PET4RUNG08Full House1,000
328/05 02:14V3RR477Full House10,000
428/05 02:14RENDI00000Full House20,000
528/05 02:14V9JUF48W22Full House2,000
628/05 02:14SAMURAIX56Full House10,000
728/05 02:14PANNJOLLLLFull House2,000
828/05 02:14S98KCBRVF7Full House1,000
928/05 02:14TEMPOER99Full House5,000
1028/05 02:14MAYSASIIFull House5,000
1128/05 02:14LYYH9ZGQ3ZFull House5,000
1228/05 02:14ERAMASS3Full House5,000
1328/05 02:14SIBROE88Full House5,000
1428/05 02:14SIKIPOYFull House5,000
1528/05 02:14SHA74Full House10,000
1628/05 02:14CELSI78Full House20,000
1728/05 02:14DOIAAFull House1,000
1828/05 02:14SAKACUFour Of A Kind25,000
1928/05 02:14GARPIT22Full House10,000
2028/05 02:14C66MIMI534Full House5,000
2128/05 02:14CB77KENDAGA898Full House2,000
2228/05 02:14STOGO17Full House10,000
2328/05 02:14TUYIS_ONGOFull House2,000
2428/05 02:14O71Full House20,000
2528/05 02:14CB77GAMEBLER77Full House5,000
2628/05 02:14SEROK85Full House2,000
2728/05 02:14B3NK0SSFull House2,000
2828/05 02:14HHHGJGJGFFull House2,000
2928/05 02:14PKRMAKPONOFull House2,000
3028/05 02:14CANMA12Four Of A Kind50,000
3128/05 02:14ZRENK88Full House500
3228/05 02:14YOYO24Full House2,000
3328/05 02:14SIR_JHONFull House10,000
3428/05 02:14ARE19Full House10,000
3528/05 02:14Z_HHFull House10,000
3628/05 02:14PI4DDATUQQ123Full House2,000
3728/05 02:14SURO1927Full House1,000
3828/05 02:14DENALEX77Full House5,000
3928/05 02:14QPLIEE89Full House10,000
4028/05 02:14SELBOY1Full House2,000
4128/05 02:14MABAR889Full House1,000
4228/05 02:14C6026637Full House10,000
4328/05 02:14KRISN455Four Of A Kind125,000
4428/05 02:14DWBTT2063Full House2,000
4528/05 02:14S0FTECN02XFull House5,000
4628/05 02:14DJ4CKP0TEFull House1,000
4728/05 02:14PRIOK666Full House5,000
4828/05 02:14CO_SONY1Full House2,000
4928/05 02:14M3HCJIEX4QFull House1,000
5028/05 02:14WSDTITIKU88Full House1,000

Domino Multi Jackpot System

Ikutilah global jackpot yang tersedia di system kami, dengan system jackpot terbaru dan pertama di indonesia, anda dapat membeli jackpot dengan harga 100 rupiah saja dan menangkan hadiahnya hingga puluhan juta rupiah.

Jackpot bukanlah suatu keharusan untuk dibeli, namun kami memberikan suatu fitur tambahan untuk member tercinta dari www.168wbpoker.asia.

Terdapat tiga pilihan harga jackpot yang bisa anda beli yaitu :100,500 dan 1000 rupiah.

Hadiah dari Multi jackpot system www.168wbpoker.asia

  1. Murni Kecil x 50 harga jackpot yang anda beli.
      (contoh:anda membeli 1000 maka:1000 X 50 = 50.000)
  2. Murni Besar x 50 harga jackpot yang anda beli
      (contoh:anda membeli 1000 maka:1000 X 50 = 50.000)
  3. BALAK x 100 harga jackpot yang anda beli
      (contoh:anda membeli 1000 maka:1000 X 100 = 100.000)
  4. ENAM DEWA x 6666 harga jackpot yang anda beli
      (contoh:anda membeli 1000 maka:1000 X 6666 = 6.666.000)

Demikian adalah penjelasan dari Multi Jackpot www.168wbpoker.asia terima kasih dan selamat bermain salam hoki dari kami

Domino Jackpot Winner

TOP ENAM DEWA
No.TanggalNamaPriceWin
128/05 02:00FLIV6XYK0Lmurni enam6,666,000
228/05 01:44XF1JOFEE2Nmurni enam3,333,000
328/05 01:40SITAKAmurni enam3,333,000
428/05 00:15LA_QIUmurni enam666,600
527/05 22:35R4D099murni enam666,600
TOP BALAK
No.TanggalNamaPriceWin
128/05 02:13RIMBA57balak10,000
228/05 02:11PENCENG90balak100,000
328/05 02:02GONZALES22balak100,000
428/05 02:00IDUT212balak50,000
528/05 01:59INTENSE88balak100,000
LATEST JACKPOT
No.TanggalNamaPriceWin
128/05 02:14BIK_DWI008murni besar25,000
228/05 02:13RIMBA57balak10,000
328/05 02:13INDUNGSIAmurni besar5,000
428/05 02:13B8AMX0S4R7murni besar50,000
528/05 02:12UJKSTMV3ZOmurni kecil5,000
628/05 02:11MUKLAS17murni kecil50,000
728/05 02:11WADAH1JPmurni kecil50,000
828/05 02:11PENCENG90balak100,000
928/05 02:10BAJU1101murni kecil5,000
1028/05 02:10PELET55murni besar50,000
1128/05 02:10ZENEWA99murni kecil25,000
1228/05 02:08HERDIFROG_murni besar5,000
1328/05 02:07B198OSmurni kecil50,000
1428/05 02:05TWENTYONEEmurni besar50,000
1528/05 02:04TALAKKK3murni kecil5,000
1628/05 02:04JACKPOT99murni besar25,000
1728/05 02:04TN300987murni kecil50,000
1828/05 02:04LA_QIUmurni kecil25,000
1928/05 02:04PONGBOBmurni kecil5,000
2028/05 02:04TAPALAN02murni besar5,000
2128/05 02:03HEART303murni kecil25,000
2228/05 02:03JACKPOT99murni besar25,000
2328/05 02:03ANDRAZOPlucky9910,000
2428/05 02:03KATEM123murni kecil25,000
2528/05 02:02OOJEKKmurni besar5,000
2628/05 02:02SIBL333murni besar50,000
2728/05 02:02JEHANUlucky9950,000
2828/05 02:02WK22murni besar50,000
2928/05 02:02GONZALES22balak100,000
3028/05 02:02E04DA26Dmurni kecil5,000
3128/05 02:02Z85BZK8B9Pmurni kecil50,000
3228/05 02:01TOING46murni kecil50,000
3328/05 02:01SNI56287murni besar25,000
3428/05 02:00IDUT212balak50,000
3528/05 02:00FLIV6XYK0Lmurni enam6,666,000
3628/05 01:59SITAKAmurni kecil50,000
3728/05 01:59INTENSE88balak100,000
3828/05 01:58DEN271murni kecil50,000
3928/05 01:5822122murni kecil50,000
4028/05 01:58C2E106CFmurni kecil5,000
4128/05 01:58HAMPURA11murni kecil50,000
4228/05 01:58ZAD123murni kecil50,000
4328/05 01:57MGSO21murni kecil50,000
4428/05 01:56JACKPOT99murni besar25,000
4528/05 01:56FETZUmurni kecil50,000
4628/05 01:56LABASABIZbalak50,000
4728/05 01:56RANGGE88balak100,000
4828/05 01:55N4G4EM4Smurni besar50,000
4928/05 01:55RAYON999murni kecil25,000
5028/05 01:55MINUL20murni besar5,000

Ceme Multi Jackpot System

Jackpot dilihat dari gabungan kartu pemain dengan kartu bandar. Bandar harus membeli jackpot sebanyak jumlah player yang sedang duduk. Sebagai contoh bila terdapat 3 pemain duduk bermain, dan bandar memutuskan untuk membeli jackpot Rp 1.000, maka pada periode tersebut bandar akan membeli jackpot sebanyak 3xRp1.000 = Rp3.000.

Jackpot bukanlah suatu keharusan untuk dibeli, namun kami memberikan suatu fitur tambahan untuk member tercinta dari www.168wbpoker.asia.

Terdapat tiga pilihan harga jackpot yang bisa anda beli yaitu :100,500 dan 1000 rupiah.

Hadiah dari Multi jackpot system www.168wbpoker.asia

  1. Murni Kecil x 50 harga jackpot yang anda beli.
      (contoh:anda membeli 1000 maka:1000 X 50 = 50.000)
  2. Murni Besar x 50 harga jackpot yang anda beli
      (contoh:anda membeli 1000 maka:1000 X 50 = 50.000)
  3. BALAK x 200 harga jackpot yang anda beli
      (contoh:anda membeli 1000 maka:1000 X 200 = 200.000)
  4. ENAM DEWA x 6666 harga jackpot yang anda beli
      (contoh:anda membeli 1000 maka:1000 X 6666 = 6.666.000)

Demikian adalah penjelasan dari Multi Jackpot www.168wbpoker.asia terima kasih dan selamat bermain salam hoki dari kami

Ceme Jackpot Winner

TOP ENAM DEWA
No.TanggalNamaPriceWin
128/05 01:58JACKPOTDRmurni enam6,666,000
228/05 01:56KIMCIL185murni enam6,666,000
328/05 01:56GIA888murni enam3,333,000
428/05 01:55SETAN5666murni enam3,333,000
528/05 01:47RRH31murni enam6,666,000
TOP BALAK
No.TanggalNamaPriceWin
128/05 02:13OIBbalak200,000
228/05 02:13PETONG_83balak200,000
328/05 02:125000R1balak200,000
428/05 02:12MSCOL89balak20,000
528/05 02:12NOTHOKII13balak200,000
LATEST JACKPOT
No.TanggalNamaPriceWin
128/05 02:14LIUSIJSUWmurni besar50,000
228/05 02:14GASAK_PEWmurni besar25,000
328/05 02:14NGOBRENG33murni besar50,000
428/05 02:14KAYANAGA99murni besar50,000
528/05 02:14NGOBRENG33murni besar50,000
628/05 02:14BUMER4NGmurni besar25,000
728/05 02:14KOCKBRUTmurni besar50,000
828/05 02:14BAJE99murni kecil50,000
928/05 02:13OIBbalak200,000
1028/05 02:13EXTECE83murni kecil50,000
1128/05 02:13BATUABSmurni kecil5,000
1228/05 02:13FUKYUNG85murni kecil5,000
1328/05 02:13SRNAR1233murni kecil50,000
1428/05 02:13CHIKO521murni kecil50,000
1528/05 02:13PETONG_83balak200,000
1628/05 02:13F717BD64murni besar25,000
1728/05 02:13RONI2001murni besar50,000
1828/05 02:13MALAU036murni besar25,000
1928/05 02:13GARUT06murni kecil50,000
2028/05 02:13KIRANIEmurni kecil50,000
2128/05 02:125000R1balak200,000
2228/05 02:12ZULIANA888murni besar5,000
2328/05 02:12MSCOL89balak20,000
2428/05 02:12NOTHOKII13balak200,000
2528/05 02:12RHUWET09murni kecil50,000
2628/05 02:12HERY12GOmurni besar50,000
2728/05 02:12ARIFUOPmurni kecil50,000
2828/05 02:12BE944EF9murni kecil25,000
2928/05 02:12RONI2001murni kecil50,000
3028/05 02:12NDOETTDICKmurni kecil5,000
3128/05 02:12CE86DB4Amurni kecil25,000
3228/05 02:12MRBEGOKOKmurni kecil5,000
3328/05 02:12PALSIGObalak20,000
3428/05 02:12RICLONA77murni besar25,000
3528/05 02:12RISAHJPmurni besar5,000
3628/05 02:12PECANDUU99murni kecil50,000
3728/05 02:12TINI_58murni kecil25,000
3828/05 02:12WALKEN11murni kecil50,000
3928/05 02:11A4PO9X4SV9murni kecil50,000
4028/05 02:11DJELANTIKbalak100,000
4128/05 02:11K0NCRETbalak100,000
4228/05 02:11AD8669murni kecil25,000
4328/05 02:11FAISAL1112murni kecil25,000
4428/05 02:11TIBEKTImurni besar5,000
4528/05 02:11HAR1YAD1murni besar50,000
4628/05 02:11HIDAYATR77balak200,000
4728/05 02:11AJI63balak200,000
4828/05 02:11NGENYOT789balak200,000
4928/05 02:11EXTECE83murni kecil5,000
5028/05 02:11NSR015murni kecil5,000